Powrót do katalogu

STARLINK-36059

AktywnyŁącznośćVLEO
NORAD 66904·PAYLOAD·🇺🇸 United States

Wystrzelony Dec 4, 2025 z Vandenberg Space Force Base

Loading…

Następne Przeloty (najbliższe 24 godziny)

TLE

ŚwieżeSource: CelesTrak SupGP

Epoka: Sep 15, 2026, 03:38 UTC

1 66904C 25283AC  26258.15187500 -.00063709  00000+0 -18824-2 0  2584
2 66904  53.1574 221.0462 0001452  94.6256 321.2552 15.34420463    16

Śledź STARLINK-36059 w czasie rzeczywistym z AllMySat

Download on the App Store